Location: College Park
(38.9810°N, 76.9370°W)
Time: 10:05:59
(UTC-04:00)

Hubble Space Telescope - Pass Details

Date: 08 January 2018
Orbit: 537 x 541 km, 28.5° (Epoch: 24 April)

Event Time Altitude Azimuth Distance (km) Brightness Sun altitude
Exits shadow 06:04:29 10° 228° (SW) 1,759 3.1 -15.6°
Maximum altitude 06:07:01 17° 189° (S) 1,414 3.0 -15.1°
Drops below altitude 10° 06:09:41 10° 149° (SSE) 1,784 4.1 -14.6°
Sets 06:12:35 0° 128° (SE) 2,672 5.7 -14.1°
